Wind_Speed
13 12 13 12 12 13 13 15 16 17 17 17 17 19 20 21 22 22 23 23 23 23 23 23 24 24 24 24 24 24 23 23 23 22 22 21 20 19 20 20 22 24 26 27 27 28 29 31 32 32 32 34 35 35 35 36 36 36 36 36 35 34 33 28 18 13 17 24 28 30 35 38 39 42 44 44 45 45 44 43 42 40 39 40 37
11 11 11 11 11 11 12 14 17 19 19 19 18 19 21 22 24 24 26 26 26 26 26 25 25 25 25 25 26 26 25 24 24 24 24 24 23 22 21 20 21 23 24 26 27 28 29 31 32 32 31 33 35 34 35 35 35 36 37 36 36 35 33 31 25 16 14 21 26 27 31 36 38 41 44 45 46 46 46 45 44 42 42 42 40
10 11 12 12 12 12 12 14 17 20 21 21 20 19 21 23 25 26 27 28 28 28 28 28 29 28 28 28 28 28 27 26 26 25 25 25 25 25 24 23 23 23 23 25 26 26 28 30 31 31 31 33 34 34 34 34 34 36 37 37 36 36 35 33 29 23 17 19 25 28 30 35 39 41 44 46 46 45 46 46 45 44 43 43 42
11 13 15 16 17 17 18 19 21 22 22 22 21 20 21 23 24 26 27 29 30 30 30 30 31 31 31 31 31 31 30 29 28 27 26 26 26 26 26 26 26 26 26 25 25 25 27 29 30 30 30 31 33 33 32 33 34 34 36 37 37 36 35 33 33 30 23 19 23 29 32 35 39 41 42 43 42 43 44 44 45 45 44 44 43
12 15 17 19 21 22 23 24 25 26 26 26 26 24 24 25 26 26 27 29 30 31 31 31 32 32 32 32 33 33 33 32 31 30 29 28 27 28 28 28 28 28 28 28 27 26 27 28 29 29 28 30 31 31 31 32 33 33 35 36 36 36 34 33 35 34 29 23 23 27 31 33 34 36 40 41 40 39 40 41 43 44 43 43 43
13 15 17 20 23 24 25 27 28 29 29 29 29 29 28 29 29 29 30 31 32 32 32 33 33 33 33 34 34 34 34 34 33 33 33 31 30 29 29 30 30 30 30 30 29 29 28 29 29 29 29 30 30 30 30 31 32 33 35 35 34 34 33 33 33 33 32 29 25 25 29 32 31 31 37 42 41 39 39 38 39 41 41 42 42
12 14 16 19 22 24 25 26 28 29 30 30 30 30 30 31 32 33 33 33 34 35 35 35 35 34 35 35 35 35 35 36 36 36 35 34 32 31 31 31 31 31 32 32 32 32 31 31 30 30 31 31 32 31 30 31 32 32 34 34 32 32 33 33 32 31 31 30 26 25 29 33 33 31 35 40 40 39 38 34 32 35 39 42 44
11 12 14 17 20 22 23 25 27 28 30 30 30 30 31 32 33 34 35 35 36 37 37 38 38 37 37 36 36 36 36 37 38 37 36 36 34 34 34 34 33 33 34 34 34 34 34 34 33 33 33 33 33 33 32 32 31 32 33 31 30 30 32 32 31 30 30 29 26 26 26 29 31 29 29 33 33 32 35 34 32 37 42 44 45
12 13 15 17 20 23 24 26 28 29 30 31 31 32 32 33 34 35 36 37 37 38 39 40 40 40 40 39 39 38 38 38 39 37 36 36 36 37 37 37 37 36 36 36 36 35 35 35 36 36 35 35 35 34 34 33 33 33 33 30 29 30 31 31 30 29 29 27 25 24 22 24 29 29 27 33 37 35 35 36 35 38 39 38 40
13 15 17 19 22 25 27 28 30 31 31 32 32 33 33 35 36 37 37 37 38 39 39 40 40 41 42 43 43 42 41 41 41 41 37 35 36 37 37 38 38 37 37 38 38 38 37 37 38 38 38 38 38 37 36 36 35 36 36 33 31 31 31 30 30 30 28 25 24 23 19 20 29 33 33 38 41 36 34 38 35 31 28 26 29
13 14 16 19 23 28 29 29 30 31 31 32 33 33 34 35 37 38 38 38 38 38 38 40 41 42 42 43 44 44 44 45 46 44 39 35 35 37 38 38 39 38 37 38 38 39 39 38 38 38 38 39 39 39 38 38 37 38 38 38 37 36 34 32 31 31 29 26 27 25 22 23 31 35 35 35 36 35 37 39 34 28 26 22 19
12 13 16 19 24 28 28 28 29 30 30 31 32 33 34 35 36 37 36 36 37 38 39 41 42 43 42 42 44 45 46 48 48 44 39 37 36 37 38 39 39 39 39 39 39 39 38 39 39 39 39 39 39 40 39 39 39 38 38 39 39 41 41 39 36 34 31 29 28 28 28 29 31 34 36 35 34 35 35 34 35 34 32 28 23
12 15 18 22 26 26 26 26 28 28 29 29 30 32 33 34 35 34 34 36 37 39 41 41 42 42 41 41 43 44 46 50 49 43 38 37 37 37 38 39 39 40 40 40 41 41 40 39 38 38 39 39 39 39 39 39 39 38 38 38 39 42 44 45 45 42 39 35 32 33 35 33 29 32 38 38 35 34 33 33 36 36 32 32 35
14 18 22 25 25 24 24 25 26 26 27 27 29 31 32 33 34 34 35 37 38 39 40 41 41 42 41 41 41 43 46 49 47 41 38 37 37 37 38 39 41 42 42 42 42 42 43 42 40 40 40 39 38 38 38 39 38 37 37 38 40 42 43 46 48 48 46 42 38 39 41 37 32 32 36 39 40 39 39 38 37 37 36 38 40
18 22 24 24 23 22 23 23 24 26 27 29 30 31 31 32 33 34 34 36 37 38 39 40 41 42 41 40 40 42 46 46 43 40 39 39 38 38 38 39 40 42 44 45 44 43 43 43 43 43 43 42 40 39 38 38 37 37 37 38 40 42 43 45 47 48 48 47 46 46 45 40 36 34 33 39 45 46 45 44 41 41 41 38 34
20 22 22 22 21 21 22 24 26 28 30 30 31 32 32 32 33 32 33 35 36 36 37 38 39 40 41 39 39 41 45 44 40 38 39 39 38 38 38 38 39 41 43 44 45 45 44 43 43 43 44 45 44 43 41 39 38 37 38 39 40 41 43 45 47 47 47 46 48 50 48 43 39 36 35 38 44 46 43 38 37 36 33 27 25
19 19 19 19 20 21 23 25 28 29 30 30 32 33 32 33 33 32 32 35 36 35 35 36 37 38 39 39 38 40 44 43 38 37 39 38 39 39 39 39 40 41 42 43 43 44 44 43 42 42 43 45 46 46 44 41 39 39 39 39 40 39 42 44 45 45 45 45 46 49 50 47 42 40 37 36 40 44 40 33 33 35 28 18 15
17 17 18 19 21 23 24 25 26 28 30 31 33 33 33 33 33 32 31 33 35 35 35 36 39 38 38 39 38 38 43 43 39 37 39 39 38 39 39 39 39 40 42 44 43 43 45 44 43 43 45 46 46 46 44 41 41 41 40 39 38 38 40 43 41 39 40 42 45 47 48 48 45 42 40 37 38 43 44 40 39 36 28 21 18
16 17 20 21 22 23 23 24 25 27 30 31 32 32 33 33 33 32 31 32 34 36 34 35 40 40 38 38 38 38 42 45 40 37 38 37 36 36 36 36 36 37 38 39 40 41 44 45 45 44 45 46 45 45 44 43 43 43 42 39 36 37 41 42 38 35 36 38 41 44 46 46 45 44 44 41 38 42 49 49 44 38 33 31 26
18 20 22 22 22 22 23 24 25 26 28 30 31 31 31 32 32 32 33 33 34 36 35 35 40 42 39 38 39 39 40 42 39 34 34 35 34 33 34 34 34 35 36 37 39 42 44 45 47 47 45 46 46 46 46 46 46 46 44 40 37 39 43 42 38 36 37 38 39 40 41 42 43 43 44 44 40 42 48 50 48 45 42 37 31
21 22 22 23 23 23 23 24 26 26 26 28 30 30 30 30 31 32 34 35 35 36 37 37 40 42 39 37 38 37 36 37 35 32 32 33 32 31 32 32 32 34 36 36 37 40 41 41 42 43 42 43 44 45 46 47 48 48 47 46 45 46 45 41 38 37 39 39 38 36 36 37 37 38 41 44 44 43 45 48 48 48 47 42 35
22 23 24 24 24 25 25 25 25 26 26 26 28 30 30 30 31 32 33 34 35 36 38 38 39 40 38 36 36 36 33 33 33 32 32 32 32 31 32 33 33 33 35 35 34 35 37 38 38 39 39 40 42 44 45 47 48 50 50 49 50 50 49 43 38 36 36 36 34 33 33 32 33 34 37 40 44 45 44 45 47 47 47 46 41
23 24 25 25 26 26 27 26 26 26 26 27 27 29 30 30 30 30 30 32 34 35 36 36 37 38 36 34 34 34 34 33 33 33 33 33 33 33 33 34 35 34 35 36 36 36 38 39 40 40 40 41 42 44 45 46 47 48 50 49 48 50 49 45 39 36 34 33 31 31 31 31 31 33 36 38 41 44 44 44 46 45 44 44 43
24 25 25 26 27 28 28 27 27 26 26 26 27 28 29 30 29 29 29 30 32 33 34 33 33 33 34 33 33 34 35 36 35 34 34 34 34 35 35 36 36 36 37 38 38 38 38 39 40 41 42 43 43 45 46 47 47 47 48 48 47 47 45 42 38 35 32 30 29 29 30 32 32 33 36 39 39 40 42 42 43 44 44 44 43
25 25 26 27 28 29 29 28 27 26 25 25 26 27 28 29 29 29 29 30 30 31 32 32 32 32 32 32 33 35 36 38 37 35 34 35 35 36 37 37 37 38 39 40 40 40 40 41 43 44 44 44 43 43 44 45 46 47 47 47 46 44 42 39 37 33 30 29 28 29 30 32 35 36 37 37 35 34 35 35 36 39 42 42 43
25 25 26 27 28 29 30 29 28 26 25 24 25 26 27 28 29 29 30 30 29 30 30 31 31 31 30 31 35 37 36 36 36 35 35 35 36 37 37 37 37 38 40 42 43 43 43 43 42 42 40 40 40 40 41 43 44 45 45 45 44 41 38 36 35 32 30 29 29 30 32 33 35 36 34 32 32 32 33 31 30 31 35 36 35
24 25 26 28 29 28 28 29 28 27 27 26 26 26 26 27 29 30 31 31 29 28 29 29 29 29 29 31 35 35 34 33 34 34 34 34 35 37 36 36 37 37 39 41 43 43 43 41 40 40 39 39 40 40 40 42 42 42 42 40 40 39 37 36 35 33 32 32 31 31 33 33 31 31 30 30 31 33 34 32 29 28 30 30 28
23 25 26 27 28 27 26 27 28 28 28 28 27 27 28 29 30 30 31 31 30 29 28 28 28 29 29 31 32 31 29 29 31 33 34 34 35 35 34 33 34 34 35 38 41 41 41 39 37 36 35 35 35 35 36 39 39 36 36 36 36 38 38 37 37 36 34 33 31 30 30 30 28 28 29 29 30 32 32 33 32 30 30 29 24
23 24 25 26 26 26 26 26 27 28 29 29 28 27 27 29 31 32 32 31 30 31 31 30 31 33 33 33 32 30 28 29 32 36 38 38 37 37 35 34 34 33 34 36 38 38 35 33 31 30 29 28 28 29 31 33 33 28 26 28 30 31 32 33 33 34 34 32 30 28 27 27 27 28 28 28 29 31 32 34 33 31 30 29 25
23 24 24 25 26 26 27 27 27 28 28 29 29 29 27 26 28 32 34 32 31 32 33 34 36 38 37 36 35 34 35 38 40 41 41 40 40 40 39 38 38 38 38 38 37 34 29 27 26 26 25 23 22 23 25 28 30 27 24 24 25 26 28 30 32 32 32 31 30 29 28 27 27 27 27 27 27 29 31 34 33 31 30 28 24
23 24 25 26 27 27 27 27 27 27 28 28 28 30 30 29 28 30 31 32 32 33 34 35 36 37 37 38 38 38 39 41 42 42 43 43 42 40 39 38 37 37 38 37 34 28 24 22 22 22 22 20 19 21 22 24 27 29 27 25 24 26 28 30 31 31 30 29 29 29 28 28 27 27 27 28 26 26 28 30 30 30 30 28 24
23 25 26 27 27 27 27 27 27 27 27 28 27 28 29 30 30 30 30 30 31 32 33 34 35 35 36 37 38 38 39 39 42 44 45 43 41 39 38 38 38 37 38 36 30 24 23 22 20 20 20 19 19 21 23 23 24 27 27 23 21 23 26 28 30 30 28 26 27 27 27 27 27 27 28 28 26 24 25 26 27 28 27 25 23
23 25 26 26 26 27 26 26 26 26 26 27 27 27 27 27 28 31 33 33 34 35 34 32 31 33 34 35 36 38 39 40 42 44 44 41 39 37 37 38 38 37 38 34 26 23 24 24 23 23 23 22 22 23 24 26 28 30 29 24 21 21 25 27 29 29 27 27 27 26 26 27 27 26 26 26 26 25 25 25 25 24 23 21 20
23 24 25 25 25 26 26 25 26 26 27 27 27 27 28 28 27 29 30 31 33 37 40 39 36 33 33 35 36 36 38 40 40 41 41 39 37 37 37 36 35 36 36 33 26 23 24 23 23 25 25 24 25 25 24 26 28 29 29 27 24 23 24 25 25 24 25 26 26 25 25 26 26 25 24 24 24 24 23 24 24 23 22 20 19
24 25 25 24 23 24 25 26 26 27 27 27 27 27 28 28 28 28 28 26 27 30 36 42 43 39 36 35 36 36 37 38 38 39 39 38 37 36 33 29 27 29 32 32 29 27 26 24 25 26 26 25 25 24 24 25 27 27 27 26 24 22 22 22 21 21 22 23 24 24 25 25 26 27 26 26 25 24 23 24 25 25 24 22 21
23 24 24 23 23 24 25 26 26 27 26 26 27 28 28 28 28 28 28 27 27 27 30 35 40 41 38 35 35 35 35 36 37 38 37 36 35 32 27 22 21 22 25 27 27 28 28 27 27 26 25 25 25 25 26 28 29 28 28 26 23 20 19 20 21 22 23 24 25 25 25 25 26 27 27 27 27 27 27 27 27 27 26 25 23
22 22 23 23 23 24 25 26 26 26 26 26 26 27 28 28 28 28 27 27 27 27 30 32 35 36 37 36 35 35 36 37 38 37 34 32 30 26 23 21 21 21 22 24 26 26 27 28 28 25 24 23 25 26 27 28 28 29 28 26 24 20 19 20 21 22 23 24 24 25 25 26 27 29 28 26 26 26 26 27 27 26 26 26 24
21 21 21 22 22 23 24 25 26 26 26 26 26 26 27 27 27 26 26 27 27 27 28 31 31 30 31 34 36 36 36 35 33 32 32 31 29 26 23 23 23 22 22 24 26 26 26 28 28 26 24 23 24 25 26 25 26 27 26 25 24 22 21 21 21 22 24 23 23 25 27 27 28 30 30 27 25 24 24 24 24 22 23 23 22
21 21 21 21 21 21 22 23 25 25 25 26 26 26 26 26 26 25 25 27 28 27 28 30 30 28 29 33 35 35 32 29 26 26 28 29 28 26 26 25 24 23 23 25 27 27 27 28 29 27 24 24 25 25 25 25 25 25 24 22 21 20 20 20 21 22 23 23 23 25 26 26 26 28 27 25 24 24 24 24 25 24 23 23 22
21 22 23 22 21 21 21 22 23 23 24 25 26 26 25 25 24 25 26 26 27 28 28 28 28 30 31 33 33 32 28 25 24 24 25 25 26 26 26 26 25 24 25 27 28 28 28 29 30 27 22 22 24 25 25 25 25 24 22 21 20 20 21 21 22 22 22 22 22 21 22 22 23 23 23 22 23 25 26 25 26 26 25 24 23
20 22 23 22 22 22 22 21 21 22 22 24 25 25 25 25 24 24 25 25 26 28 28 27 29 32 33 31 31 30 27 23 23 24 24 24 25 25 25 25 25 26 27 28 29 30 30 30 30 26 20 15 15 18 20 22 22 21 21 21 20 19 19 19 19 20 19 19 20 20 21 22 23 23 22 22 23 24 25 24 24 24 23 22 23
19 21 22 23 22 22 22 22 22 22 22 23 23 23 23 24 24 24 23 24 25 26 27 28 31 33 32 31 30 30 26 22 23 24 24 24 24 24 25 26 27 28 28 29 30 32 32 31 28 26 24 21 17 14 13 14 15 16 17 17 16 14 14 14 15 16 17 18 19 20 21 22 23 22 22 23 24 24 23 23 23 23 22 23 24
18 19 21 22 22 21 21 22 22 22 22 22 23 23 22 22 23 23 23 23 24 24 25 28 31 33 32 31 30 28 25 24 24 24 23 24 24 25 26 28 29 29 29 29 29 31 32 30 28 25 23 21 18 16 13 10 9 10 10 11 11 12 13 14 15 16 18 18 19 20 21 21 21 21 22 23 24 24 23 23 23 23 22 23 24
17 18 19 20 21 21 21 21 21 22 22 22 22 22 22 22 22 23 22 23 23 24 25 27 29 30 31 31 30 28 26 25 25 24 24 24 26 27 28 29 29 29 28 28 28 29 29 29 28 25 23 20 17 15 13 10 7 4 4 6 8 10 12 14 15 17 19 20 20 20 21 21 22 22 23 24 25 24 23 23 23 23 23 23 23
15 17 18 19 20 20 20 20 20 21 22 22 22 22 22 21 21 22 22 22 23 23 24 26 27 27 28 29 29 28 27 26 25 25 25 25 27 28 28 28 28 28 28 28 28 28 28 28 27 26 24 21 18 16 13 11 7 3 1 4 6 8 9 12 14 16 19 21 22 22 22 22 23 23 23 24 24 24 23 23 24 23 23 23 23
14 15 16 18 19 19 19 19 20 20 20 20 20 21 22 21 21 21 21 21 22 22 23 25 26 26 26 27 27 27 27 27 26 26 26 27 27 28 28 28 27 27 27 27 28 28 28 27 26 26 24 22 20 17 14 12 9 6 3 3 5 7 8 10 12 15 17 20 22 22 22 22 22 22 23 23 23 23 22 22 23 23 22 22 22
12 14 15 16 17 17 18 18 18 18 18 18 19 20 20 21 21 21 21 21 22 22 23 24 25 25 26 26 26 27 27 27 26 26 27 27 27 27 27 27 27 27 28 29 29 30 29 28 27 26 25 23 21 18 16 14 12 9 7 5 4 5 7 9 12 15 17 19 21 22 23 23 22 23 23 23 23 23 22 22 21 22 22 22 22
11 13 14 15 15 15 16 17 18 18 18 18 19 19 19 19 20 20 21 21 22 22 23 24 25 25 26 26 26 27 27 26 27 27 28 28 28 28 28 28 29 28 29 30 31 32 32 31 29 28 27 25 24 21 19 16 14 12 11 9 7 6 7 10 12 15 17 19 20 22 23 23 23 23 23 23 23 23 22 21 21 21 22 21 21
10 12 12 13 13 13 14 15 16 16 17 17 18 18 18 18 19 20 20 21 22 22 22 23 24 25 26 27 27 28 28 27 28 29 29 29 30 29 29 30 30 30 30 30 31 31 32 32 32 31 30 28 27 25 23 21 19 17 15 12 10 8 9 11 13 15 17 19 21 22 23 24 24 23 23 23 23 23 22 22 22 22 22 21 21
9 10 11 11 11 12 12 13 14 14 15 16 16 17 18 18 18 19 20 21 22 22 23 23 24 24 25 26 27 27 28 28 28 29 29 30 31 31 31 31 31 31 31 31 31 31 31 31 31 31 31 31 30 28 26 24 22 20 17 15 13 12 12 13 15 16 18 20 21 23 24 25 25 24 23 23 23 23 23 23 23 22 22 22 21
9 9 9 9 10 11 12 12 13 14 14 15 15 16 17 17 18 18 19 19 20 21 22 23 23 24 24 25 25 26 27 28 28 29 29 30 31 32 32 32 32 31 31 32 32 32 32 31 31 30 30 29 29 29 28 26 24 21 19 17 16 15 15 16 16 17 19 21 22 24 25 25 26 25 25 24 24 24 23 23 23 22 22 21 21
Wind_Direction
48 46 40 37 32 27 20 15 15 14 12 8 2 2 1 359 358 356 355 356 356 355 353 353 352 350 349 348 348 348 348 349 349 346 344 341 337 330 323 315 309 306 305 302 300 296 292 290 288 286 284 280 275 271 269 266 263 259 255 253 249 245 239 233 239 249 235 232 236 233 228 223 218 216 217 219 220 221 223 227 228 226 224 223 224
42 41 38 34 30 25 13 5 4 6 7 6 360 355 352 351 349 347 347 348 348 348 347 347 346 344 343 341 341 341 340 340 340 339 338 335 334 332 327 321 312 306 303 300 298 298 294 290 288 288 286 281 277 274 270 267 265 261 257 254 251 249 244 237 238 245 239 228 226 228 224 218 215 215 216 218 220 218 218 221 224 225 224 223 222
27 28 29 29 26 22 11 2 360 1 2 1 358 351 345 344 344 342 341 341 341 342 342 341 340 340 338 336 335 335 334 333 332 332 330 328 327 326 324 320 315 309 304 300 298 296 294 290 288 288 287 283 279 276 273 269 265 262 260 257 253 251 247 242 239 240 241 231 222 220 217 213 214 216 217 219 220 217 216 218 220 221 222 222 221
7 10 13 12 12 10 5 0 357 356 354 353 351 347 340 339 339 338 337 336 337 337 337 336 336 335 333 332 331 329 328 327 325 324 323 321 318 318 318 316 312 309 305 302 300 296 292 288 287 286 285 282 280 277 274 271 266 262 261 259 256 254 250 245 241 240 239 233 223 220 217 213 214 216 215 214 215 216 216 216 218 219 220 220 220
355 358 359 359 360 359 357 354 352 350 347 345 344 341 337 335 335 334 333 332 332 332 332 331 331 329 328 327 325 323 322 321 319 317 316 315 312 310 311 310 307 306 303 301 300 297 293 288 287 286 282 278 278 277 275 272 268 264 261 260 258 256 252 247 244 241 239 235 228 220 217 215 214 214 211 209 209 213 215 216 217 217 218 219 220
346 348 350 352 352 351 349 347 345 343 341 339 338 336 335 334 333 332 331 330 328 328 328 327 326 325 323 321 320 318 317 315 313 311 310 309 307 304 304 304 303 301 299 299 298 296 292 289 287 284 280 275 273 273 272 271 269 265 262 260 259 257 254 249 244 241 238 238 233 219 213 212 210 210 211 209 206 206 208 212 215 216 217 218 219
334 337 341 344 345 343 341 339 337 336 334 333 332 332 331 331 330 329 328 326 325 324 324 323 322 321 318 317 316 314 312 310 308 307 306 305 303 299 297 298 297 295 293 293 294 293 291 288 286 283 279 276 273 271 269 267 266 265 263 261 259 256 254 251 246 240 238 238 234 222 214 212 210 210 212 209 208 208 204 201 205 212 216 218 219
319 325 330 334 338 336 333 329 327 327 326 326 326 326 326 326 325 324 323 322 321 321 320 319 318 316 315 313 312 310 309 307 305 303 302 302 300 297 295 294 292 290 288 286 286 288 288 286 284 283 280 277 275 272 269 265 263 262 262 261 259 256 254 252 248 242 238 236 233 225 216 210 209 210 207 201 203 210 206 199 200 207 212 216 218
311 315 320 326 331 330 326 322 320 319 319 319 320 320 320 320 320 319 318 317 316 315 315 315 313 312 311 310 309 307 305 303 301 300 299 298 296 294 293 292 291 288 286 284 283 282 283 282 281 281 281 280 277 274 270 266 262 260 259 258 257 255 253 251 248 244 240 236 232 222 211 207 207 202 196 196 202 207 204 201 207 211 211 213 217
304 308 313 318 323 324 321 318 315 315 315 315 315 316 315 315 315 314 313 312 311 310 310 309 308 308 308 307 306 305 302 300 298 297 295 293 292 291 290 289 288 286 283 282 281 281 280 279 278 278 279 279 278 276 272 268 263 260 258 255 253 252 251 250 247 244 241 239 234 219 206 210 211 204 201 205 206 203 198 200 208 210 205 209 218
291 296 302 310 315 318 316 313 311 311 311 311 311 311 310 310 310 310 309 308 306 306 305 304 304 303 303 303 302 301 299 298 297 297 294 291 289 289 288 287 285 283 281 278 278 278 277 276 276 276 276 276 277 275 273 270 266 262 259 256 252 249 247 247 246 244 241 241 239 228 215 217 216 210 209 209 205 201 201 201 203 199 195 201 214
279 287 296 305 310 311 310 308 306 306 307 308 307 306 306 306 307 306 305 303 302 301 301 301 300 300 299 298 297 296 296 295 295 295 293 292 291 290 288 287 285 282 280 278 277 276 275 274 273 272 271 271 272 272 270 269 267 263 261 257 253 250 247 245 245 244 242 241 242 236 228 225 220 212 210 209 204 203 204 203 202 200 198 202 206
280 291 299 304 306 307 306 304 303 304 305 305 304 304 304 304 304 303 301 300 299 298 298 298 297 296 295 294 293 293 292 292 293 293 292 292 292 291 290 288 286 283 280 278 277 276 276 274 272 269 268 268 268 266 265 266 265 263 261 258 254 252 249 246 244 243 243 242 242 241 237 232 226 218 213 209 204 201 202 204 207 206 205 209 211
290 296 300 303 305 306 305 304 303 303 303 303 302 302 302 301 300 299 298 298 297 296 296 296 295 293 292 291 291 290 289 290 291 292 293 293 293 292 291 288 286 284 281 278 276 275 275 274 272 270 269 266 264 261 260 261 262 261 259 256 253 251 249 247 245 243 242 241 243 245 244 239 235 229 220 212 207 204 204 206 207 208 211 218 219
296 298 299 303 306 307 305 303 302 302 303 303 302 300 300 298 297 297 297 296 295 295 294 294 293 292 291 290 290 289 288 289 292 294 295 295 295 294 291 288 285 283 282 280 277 275 274 273 272 271 270 268 264 259 257 257 257 257 255 253 252 250 248 246 245 243 240 238 240 244 247 245 242 239 229 218 215 214 213 213 213 213 215 221 222
297 299 301 305 306 304 302 302 302 303 303 303 302 300 300 299 298 299 298 296 294 293 292 292 291 290 291 291 290 289 289 290 293 296 297 297 297 296 293 289 286 283 280 279 277 276 274 273 271 270 269 268 266 263 259 256 254 253 252 252 251 249 248 248 247 245 242 240 239 242 245 246 245 243 238 227 220 218 216 217 217 214 213 218 219
300 302 303 303 302 300 300 302 303 303 304 303 302 301 301 301 300 301 300 297 296 294 293 292 290 290 290 291 291 291 291 292 296 298 298 298 298 297 295 291 287 283 280 278 277 277 276 273 272 270 269 268 267 266 263 257 253 250 249 250 250 248 248 249 249 247 245 244 243 243 244 243 242 243 242 237 228 217 209 209 212 209 206 210 215
304 305 302 300 300 300 302 303 303 303 303 303 302 302 302 302 302 302 300 297 295 294 293 292 291 290 290 291 292 292 292 294 297 299 298 297 296 295 293 290 287 283 282 281 279 278 276 274 272 270 269 267 266 265 262 257 253 250 248 248 247 246 247 248 248 246 245 245 245 245 245 243 240 240 240 240 234 219 209 210 211 205 203 212 215
306 304 301 301 302 302 303 303 304 304 304 303 302 302 302 302 302 301 299 296 294 294 293 292 291 290 290 290 291 291 292 293 297 298 298 296 295 293 290 287 285 283 284 284 283 281 278 276 273 271 270 269 268 266 262 257 253 249 247 246 244 243 246 247 245 242 241 242 242 242 243 242 240 238 236 237 235 224 217 217 213 204 205 215 212
305 303 303 304 304 305 307 308 308 307 304 303 303 303 303 303 302 302 300 297 295 294 293 292 291 291 292 292 292 291 292 293 296 298 298 297 296 294 290 286 284 285 285 285 284 282 279 277 276 274 272 271 270 269 265 261 256 251 247 243 241 243 246 246 243 239 238 239 239 239 239 240 239 236 233 233 232 227 222 221 216 210 210 213 210
308 308 308 309 310 312 314 314 313 310 306 305 304 303 303 303 302 302 301 299 297 295 294 293 292 292 293 294 293 292 293 293 296 298 299 298 297 296 292 288 287 287 285 283 280 279 278 278 277 275 273 273 272 270 268 264 259 255 249 244 243 244 246 245 242 240 237 237 238 238 238 237 236 234 232 230 229 227 224 222 219 217 215 214 211
313 313 313 314 316 318 319 319 316 312 309 308 306 304 304 304 303 302 301 299 297 296 296 295 294 294 295 295 295 295 295 295 296 298 298 298 296 294 292 290 289 288 287 285 284 284 283 282 282 279 277 276 274 272 270 266 262 257 252 248 246 245 245 244 241 239 236 234 234 234 234 233 231 230 229 228 228 227 225 223 221 221 221 219 217
317 317 318 319 320 321 322 320 317 313 312 311 307 305 306 306 305 303 302 300 299 297 297 297 296 296 296 296 297 297 297 296 296 296 296 296 295 293 290 289 289 288 287 286 287 287 286 284 283 282 281 279 276 274 270 266 263 260 255 250 247 244 243 243 240 236 233 231 230 229 229 229 227 227 227 227 227 226 225 224 222 222 223 223 223
320 320 321 322 323 323 323 320 317 315 315 313 309 307 308 307 306 305 304 302 299 297 297 298 298 297 297 297 298 298 298 297 296 294 293 294 293 293 291 289 288 287 285 283 283 283 283 282 282 281 282 282 281 279 273 266 262 260 256 252 248 244 241 239 237 234 229 226 225 226 227 227 226 226 227 227 227 226 225 226 226 224 225 225 225
322 322 323 323 324 324 322 319 317 316 316 315 310 308 309 308 306 307 306 302 298 297 297 298 297 296 296 296 297 297 298 298 296 293 291 290 290 290 289 288 286 285 282 281 280 279 280 282 283 283 283 283 285 286 282 271 262 258 256 253 248 245 241 237 235 231 226 223 223 224 227 227 227 228 230 228 226 224 222 223 225 224 224 225 226
323 323 323 323 324 323 320 317 317 317 315 313 311 309 308 307 306 306 304 300 297 295 295 296 296 295 293 293 295 296 297 296 294 292 291 288 286 285 283 281 282 282 280 280 279 279 280 282 283 283 283 284 286 288 288 282 268 256 253 252 248 244 241 237 233 229 225 223 223 224 227 229 229 230 230 226 221 219 216 214 213 212 213 214 214
323 322 322 322 322 321 318 316 316 316 315 314 312 310 308 307 305 303 300 297 295 294 294 294 295 293 291 292 294 294 294 294 294 295 293 288 284 282 279 276 275 275 275 276 277 277 278 278 279 280 281 284 285 285 289 291 279 256 244 245 246 244 243 241 236 232 228 225 224 224 226 229 229 227 224 220 216 216 214 209 204 201 200 199 197
322 319 321 321 320 318 315 314 314 314 313 314 312 309 309 308 304 298 295 293 292 291 291 291 290 290 292 294 295 295 294 294 295 297 295 292 290 288 285 281 277 271 268 270 273 275 275 275 276 278 279 282 286 287 290 294 286 260 238 236 238 238 241 243 239 234 230 227 225 224 224 225 224 220 217 214 213 213 210 205 202 198 193 189 187
321 319 321 320 318 316 314 313 313 312 312 312 310 307 308 307 302 296 293 292 291 290 291 291 291 293 294 295 297 297 296 296 297 300 300 298 297 296 293 290 286 280 275 275 277 278 279 278 277 280 281 282 286 289 290 292 290 273 249 241 239 235 236 240 239 234 229 225 222 221 219 218 217 215 212 210 211 210 205 200 198 194 189 188 191
320 319 321 319 316 315 314 312 312 312 312 311 309 308 307 304 298 294 293 294 294 293 293 294 296 298 298 297 298 298 297 299 302 303 302 301 301 300 298 295 294 291 290 289 287 285 283 282 280 281 282 281 282 284 287 289 291 285 271 260 253 245 240 239 239 235 230 224 221 219 216 213 212 209 206 206 207 205 200 197 194 188 185 188 191
318 318 319 316 314 314 313 312 312 312 311 310 309 309 309 306 300 296 295 297 298 299 298 297 298 300 301 301 301 301 301 302 303 302 302 304 305 305 303 301 299 297 295 293 289 283 278 277 276 275 275 274 275 279 282 286 289 286 275 263 258 255 247 239 235 232 229 224 221 218 214 211 208 205 204 202 201 198 195 193 191 187 187 189 187
316 315 315 313 313 313 312 311 312 311 311 310 310 310 309 307 305 303 303 303 302 301 301 301 302 304 304 304 305 305 304 304 302 302 305 308 308 307 305 304 304 302 300 297 292 283 276 272 270 271 271 270 272 276 278 280 285 285 275 259 250 254 252 242 234 230 228 226 224 219 214 210 206 203 202 199 194 189 187 187 187 186 187 188 183
316 313 312 312 312 312 311 311 311 310 309 309 310 310 308 305 304 306 309 311 311 309 307 305 305 307 307 307 308 307 307 306 306 306 308 309 309 308 308 308 308 306 304 300 293 281 274 270 266 265 265 265 267 272 274 274 277 281 278 265 249 251 255 247 237 231 228 228 227 220 213 210 205 199 197 194 188 184 182 184 185 184 183 183 179
316 312 311 311 310 310 310 310 310 309 308 308 309 308 305 303 302 305 309 314 316 316 316 315 314 314 313 312 312 311 310 310 309 308 308 308 308 309 310 310 310 309 307 302 292 280 274 271 266 263 260 261 263 266 268 270 273 276 277 267 253 251 255 247 236 227 223 224 225 221 213 208 201 193 189 186 184 182 181 181 181 181 182 181 175
316 312 312 312 310 309 309 309 309 307 306 307 308 307 304 304 304 304 306 308 310 311 313 315 317 317 316 315 314 314 313 312 311 309 309 309 310 312 313 313 309 306 304 301 294 287 281 276 270 265 260 257 259 259 260 266 269 272 273 265 252 248 250 245 237 233 229 227 226 221 212 205 197 190 185 181 179 179 180 181 183 183 183 180 175
315 314 314 314 313 312 310 310 309 307 306 307 308 306 304 304 303 304 305 305 305 305 306 309 313 315 316 316 317 317 317 316 314 313 312 312 313 315 314 307 298 295 296 296 295 294 291 285 277 268 259 255 256 256 258 260 264 267 268 260 247 242 244 240 235 232 229 226 222 215 205 197 192 187 183 181 181 182 183 183 184 184 183 181 177
315 314 314 315 316 315 312 311 309 308 307 308 308 306 305 304 304 306 306 305 306 307 307 310 314 315 317 320 322 322 321 320 319 317 317 319 321 320 314 307 302 300 299 299 299 298 295 293 286 273 259 252 252 253 254 257 261 265 264 253 242 240 244 241 233 225 218 215 211 204 197 192 189 186 183 183 185 186 185 184 183 182 183 181 177
317 315 315 316 316 315 313 311 311 310 310 311 310 308 306 306 307 308 308 308 309 310 310 312 314 314 315 320 323 323 322 322 324 324 325 327 328 328 324 319 314 310 306 306 306 304 301 301 297 283 263 252 252 253 254 257 261 264 257 245 238 240 242 238 231 221 213 208 203 199 195 192 189 187 186 185 184 183 182 180 178 176 177 178 175
320 318 318 318 317 315 313 312 311 311 313 314 313 310 309 309 310 311 312 312 312 312 312 313 314 314 316 320 323 323 324 327 329 328 327 326 325 325 325 322 319 318 317 315 313 311 307 306 304 293 271 255 252 253 253 256 261 260 251 237 232 235 234 230 223 216 209 205 201 197 194 192 189 188 187 184 181 178 175 175 175 174 173 175 177
322 321 322 323 321 317 315 313 310 311 314 315 313 311 310 310 311 313 314 315 314 314 315 315 315 318 321 322 324 326 329 329 328 325 323 321 321 322 323 323 322 322 323 319 316 315 312 310 309 305 286 264 256 254 255 258 259 255 244 234 229 229 227 222 217 210 205 202 198 192 189 187 183 181 181 180 177 175 173 173 175 176 174 174 172
326 324 324 325 322 319 317 315 312 314 316 314 312 311 311 312 314 316 317 317 317 317 318 317 318 321 324 324 327 331 331 327 323 322 321 320 321 321 323 324 324 323 322 319 318 319 318 314 317 326 331 316 292 278 271 265 257 246 237 232 228 225 220 215 210 205 199 194 187 181 179 178 176 174 174 173 172 172 171 171 171 172 170 168 164
329 326 325 324 323 321 319 316 316 319 320 316 314 313 313 315 317 319 319 320 321 321 320 321 323 326 328 329 331 334 333 327 324 323 322 322 323 323 324 326 328 326 324 322 323 325 326 324 329 344 359 360 347 329 308 284 262 247 238 231 223 215 207 201 197 192 186 180 176 174 172 172 171 170 168 166 164 164 164 164 164 163 162 160 159
329 326 324 323 323 322 320 318 320 323 323 318 316 317 318 319 321 322 322 323 324 324 324 325 327 329 331 333 335 336 335 332 330 328 326 326 326 326 327 330 332 332 332 332 334 337 339 339 342 352 3 6 0 353 343 322 290 265 243 225 209 196 189 185 182 180 175 169 167 166 164 162 162 160 158 158 158 158 158 158 158 158 157 157 157
328 328 326 324 324 324 323 323 325 325 323 320 318 321 324 326 326 327 328 327 328 329 329 331 332 333 335 337 340 342 340 338 336 334 332 331 329 330 332 336 339 340 342 344 346 349 353 354 355 359 6 12 12 7 3 354 331 291 239 207 191 184 180 177 174 173 170 164 158 156 155 154 154 153 153 154 155 153 153 154 155 153 153 153 153
330 330 328 327 327 326 325 328 331 329 325 323 324 327 331 332 331 332 333 333 333 334 335 337 338 338 338 341 344 345 344 343 341 339 337 336 335 335 338 342 345 348 350 352 355 359 4 7 8 8 10 15 19 20 20 18 14 5 216 185 174 167 167 170 170 170 167 161 155 152 151 151 151 151 151 153 154 153 152 154 154 152 153 153 154
330 330 329 328 328 326 327 332 335 331 328 328 329 331 333 335 335 336 338 339 339 339 341 342 343 343 343 345 347 347 348 347 347 345 343 342 342 343 345 349 354 358 0 2 5 9 12 15 17 18 17 19 24 29 32 33 35 43 66 130 155 157 161 165 166 164 161 158 153 151 149 147 147 148 149 149 149 149 149 150 152 152 152 152 152
327 329 330 329 327 326 330 336 337 332 331 334 335 334 334 335 337 340 344 346 346 346 346 346 347 348 349 349 350 350 351 352 353 353 352 351 352 354 356 -0 5 8 11 13 16 19 21 22 23 24 24 25 29 34 38 41 44 50 61 81 116 140 152 157 158 157 156 155 152 150 147 144 142 143 145 145 145 144 144 146 148 149 148 148 149
324 329 331 329 328 330 335 339 337 335 336 340 340 338 336 337 340 345 348 350 352 352 350 351 352 353 354 355 354 355 356 357 359 1 1 360 0 2 5 9 12 14 16 19 22 25 27 29 30 30 31 32 34 38 42 46 49 53 58 67 83 109 134 147 150 151 152 152 149 147 144 141 139 140 141 141 141 141 141 142 143 143 142 142 143
327 330 329 328 330 336 339 339 336 337 341 342 340 338 340 342 346 350 352 353 355 355 354 354 355 357 358 359 0 0 1 2 3 4 4 4 4 6 10 14 18 20 21 22 24 26 29 32 34 36 37 39 40 43 47 51 55 59 62 68 79 96 115 128 136 140 143 144 143 141 138 136 134 134 135 136 137 138 137 137 137 137 136 134 134
331 331 328 329 336 342 342 340 341 344 347 345 341 340 342 345 349 353 355 354 355 356 356 356 358 359 -0 2 3 3 4 5 4 5 7 7 7 10 13 17 21 24 26 27 28 29 31 33 34 36 39 42 45 47 50 53 58 63 68 72 81 92 105 115 123 131 136 137 136 134 133 131 129 129 130 132 133 133 133 132 132 132 132 130 130
330 329 329 335 344 348 347 347 349 349 349 347 344 342 343 346 350 353 355 355 355 355 356 358 360 1 2 4 5 6 7 8 8 9 10 11 12 13 16 18 21 24 27 30 32 33 34 35 36 37 39 42 44 47 50 52 56 61 66 72 79 87 97 105 112 120 127 130 131 130 129 128 127 126 127 128 129 129 129 130 131 130 128 127 129
Height
832 832 832 831 831 830 830 829 828 827 826 825 824 822 822 821 820 820 819 818 816 815 814 812 811 809 808 807 805 803 801 798 796 794 792 790 788 787 785 784 783 782 781 780 779 779 777 776 775 775 775 773 772 772 771 771 771 771 771 770 770 770 771 770 767 764 765 767 767 768 770 771 773 774 776 778 779 781 783 785 787 789 790 791 793
833 832 832 831 831 830 830 829 828 826 825 824 823 821 820 820 819 818 816 816 814 813 812 810 809 807 806 805 803 802 800 798 795 793 791 789 788 786 785 783 782 780 779 777 776 775 774 773 772 771 772 770 769 769 768 768 768 767 766 766 765 765 766 766 764 762 762 763 764 765 766 767 768 769 771 772 773 775 777 779 781 784 785 787 789
832 832 831 830 830 829 828 827 826 825 823 822 822 821 820 819 818 816 815 813 812 811 809 807 806 804 803 801 800 799 798 796 795 793 791 789 787 786 784 782 780 778 777 775 773 772 771 769 768 768 768 767 765 765 765 764 764 763 762 762 761 760 761 763 762 759 758 759 760 760 761 762 763 764 766 767 769 771 773 774 776 778 780 783 785
831 830 829 829 828 827 826 825 824 823 822 821 820 820 819 818 816 815 813 812 810 808 807 805 803 802 800 799 797 796 795 794 793 791 790 788 786 784 783 781 779 777 775 773 771 770 768 766 765 765 765 763 762 762 762 761 760 759 758 758 758 757 757 758 757 756 755 755 755 755 756 757 758 759 762 764 766 768 770 771 773 774 776 778 781
829 828 828 827 826 825 824 823 822 821 820 819 818 818 817 816 814 813 811 809 808 806 805 804 802 800 798 797 795 794 793 791 790 788 787 786 784 782 780 779 777 774 772 770 768 767 766 764 762 762 761 759 758 758 758 758 757 755 753 754 755 755 755 755 753 752 752 751 751 752 753 753 754 756 758 760 763 766 768 769 770 771 772 775 777
828 827 826 825 824 823 822 821 820 819 818 817 816 815 814 813 812 810 809 807 805 804 803 801 800 798 797 795 794 792 791 789 787 785 783 782 780 779 777 775 773 771 769 767 765 764 762 761 760 759 758 756 754 754 754 754 754 752 750 749 751 753 753 752 750 749 748 746 747 748 749 749 750 752 754 755 757 760 762 765 766 768 769 770 772
826 826 825 824 824 823 822 821 820 819 818 816 815 814 812 811 810 808 807 805 803 802 800 798 797 796 794 792 791 790 788 786 784 782 780 778 776 774 772 771 769 767 765 763 762 760 759 757 756 756 755 753 751 750 750 749 749 748 747 746 748 749 749 749 748 746 743 742 742 742 743 744 746 747 749 751 754 755 756 759 761 763 765 765 766
825 825 824 823 823 822 821 821 819 818 817 815 814 813 811 810 808 806 805 803 801 799 798 796 794 792 791 789 788 786 784 782 779 778 776 774 772 770 768 766 764 762 760 758 757 756 754 753 752 751 751 749 748 746 745 745 744 743 743 743 744 744 744 745 745 743 740 737 736 737 738 740 741 743 745 749 751 750 750 753 755 756 756 757 759
823 823 822 821 821 821 820 819 818 817 816 814 813 811 810 808 806 805 803 801 800 798 795 793 791 788 787 785 784 782 780 777 775 774 772 770 768 766 763 761 758 756 754 752 751 750 749 748 746 746 746 744 743 742 741 741 740 738 737 739 740 740 739 740 740 740 737 734 731 731 733 734 735 736 738 738 738 740 745 750 750 749 750 752 754
821 821 820 819 819 818 818 816 815 814 813 812 810 809 807 806 804 802 801 799 797 795 793 791 788 786 783 780 778 776 774 772 769 769 768 767 765 762 759 757 754 752 749 746 744 743 742 742 740 740 740 739 737 736 735 735 735 733 733 733 734 734 734 735 735 735 734 731 727 726 726 726 726 727 727 727 730 736 741 743 744 747 751 752 752
820 819 818 818 817 817 816 815 813 812 811 810 808 806 805 803 801 800 797 796 794 792 789 787 785 783 781 777 775 771 769 766 764 763 762 761 761 758 755 753 750 748 746 743 740 737 736 735 734 734 733 732 731 730 729 729 729 728 728 728 728 728 728 729 729 729 729 727 724 722 719 716 716 718 721 723 727 731 733 735 739 743 745 745 745
818 818 817 817 817 816 815 814 812 811 809 808 806 804 803 801 799 797 795 793 790 788 785 783 780 779 777 774 771 767 764 761 758 758 757 756 755 754 751 748 745 743 741 738 736 733 732 730 729 728 727 726 725 725 724 723 723 723 722 722 722 721 721 722 722 723 724 722 720 718 713 708 708 711 715 718 722 725 728 732 734 734 734 735 734
816 816 815 815 815 814 814 812 811 809 808 806 804 802 801 798 796 795 792 790 787 784 782 779 777 774 772 769 766 763 759 756 754 754 753 752 751 750 748 745 741 738 736 733 731 729 727 725 723 721 720 720 720 719 718 718 717 717 716 715 715 714 715 715 715 716 717 717 714 710 707 706 705 705 707 711 716 721 724 725 726 727 728 726 724
814 814 813 813 813 812 812 810 809 807 806 804 802 800 799 796 794 792 790 787 784 781 778 775 772 770 768 765 762 758 754 751 750 751 750 749 749 747 744 741 737 733 730 728 726 723 721 720 717 715 714 713 713 713 712 712 711 711 710 708 707 707 708 709 709 709 709 710 708 704 702 704 704 703 704 706 709 711 713 715 718 721 722 720 720
812 812 811 811 810 810 809 807 806 804 803 802 800 798 796 794 791 790 787 784 781 778 775 772 768 765 763 761 759 754 749 747 748 748 747 746 745 743 741 737 733 729 725 723 721 719 717 715 712 709 707 706 706 706 706 706 706 705 703 702 700 700 701 701 702 701 701 701 700 697 697 701 702 701 701 701 700 702 705 709 713 716 718 719 721
810 810 809 809 808 807 806 804 803 801 799 798 796 794 792 790 788 786 783 780 777 774 771 768 765 761 758 757 755 750 745 744 745 745 743 741 740 738 735 732 729 725 720 717 715 713 712 710 707 704 701 699 698 699 699 700 700 699 697 695 694 694 694 694 694 694 694 693 692 690 691 695 698 698 697 696 695 699 704 708 711 713 716 717 717
808 808 807 806 806 805 803 802 800 798 796 794 791 789 788 785 783 782 779 775 772 770 767 764 760 757 754 753 752 747 741 740 742 742 739 737 735 733 729 725 722 718 714 711 710 707 706 705 703 700 696 693 692 692 693 694 693 691 690 688 688 688 687 687 688 688 688 687 686 684 684 687 691 693 693 692 691 694 700 702 703 705 709 710 710
806 805 805 804 803 802 801 799 797 795 792 790 788 785 784 781 779 778 775 771 767 765 763 759 755 753 752 750 749 745 739 736 739 738 736 733 731 728 724 720 715 711 707 704 703 702 699 698 697 695 691 688 688 688 688 688 686 684 683 682 681 680 679 680 681 682 682 681 680 679 678 679 682 685 688 688 687 688 690 689 692 698 703 702 701
803 802 801 801 800 798 797 796 794 792 789 787 785 782 780 777 775 773 771 768 763 760 758 755 749 747 748 747 745 743 737 733 734 734 731 729 727 724 720 715 710 706 702 699 696 694 691 689 688 688 686 684 683 683 683 683 681 678 677 676 674 672 671 672 674 675 675 674 672 672 672 673 675 677 679 681 682 682 680 680 685 690 692 691 694
800 799 798 797 796 795 794 792 790 789 786 784 781 779 777 774 771 769 766 763 759 755 753 750 745 741 742 742 739 738 735 730 729 730 727 724 722 720 716 711 706 702 699 695 690 686 683 681 680 680 680 678 677 676 677 676 674 672 671 668 665 662 663 665 665 666 666 665 665 665 666 666 668 669 671 673 675 675 674 675 678 680 680 683 688
796 795 794 793 792 791 789 788 786 785 783 781 778 775 773 771 768 765 761 758 754 750 747 745 740 735 736 736 733 732 731 727 725 725 723 720 718 716 712 707 704 700 694 690 686 680 676 674 672 671 672 671 670 669 668 667 666 664 661 658 655 655 656 657 658 659 659 658 658 660 660 661 662 663 663 665 666 667 668 670 672 673 673 676 679
792 791 790 789 788 786 785 784 783 781 779 777 774 771 769 767 764 761 758 753 749 746 742 739 735 731 730 730 729 727 726 724 722 721 719 716 713 711 708 703 701 697 690 684 680 676 672 669 666 665 665 664 662 660 659 657 656 653 650 648 647 648 649 649 650 652 652 652 653 653 654 655 656 656 657 657 658 660 662 664 666 668 669 670 673
789 787 786 784 783 782 781 780 779 778 776 774 771 767 765 763 760 757 754 750 745 741 738 735 731 726 724 724 724 722 721 719 718 715 713 711 708 706 703 699 696 694 687 680 676 674 670 665 662 660 659 657 654 652 650 648 646 643 641 640 640 640 641 642 643 644 644 645 646 646 647 648 649 649 650 650 651 653 656 658 661 663 665 668 670
785 783 782 781 779 778 777 776 775 774 772 770 767 764 761 758 756 753 751 747 742 738 734 731 727 723 719 718 717 717 715 713 712 710 707 705 702 699 696 693 690 688 683 676 672 669 665 661 657 655 653 650 647 644 641 639 637 635 633 633 633 633 634 634 635 636 637 638 638 638 639 640 641 642 642 643 645 648 651 654 657 659 662 664 666
781 780 778 777 776 774 773 772 771 770 768 767 764 761 758 755 752 749 747 744 740 735 731 727 724 720 716 712 710 710 708 706 704 702 700 697 695 692 690 686 683 680 676 670 666 663 660 655 652 649 647 644 641 637 633 629 628 627 626 625 625 626 626 626 627 628 628 629 630 631 631 632 634 635 637 640 643 645 647 650 652 654 657 660 662
778 777 775 774 772 771 769 768 767 766 765 763 761 758 755 752 749 746 743 740 737 733 728 724 720 716 712 708 704 702 701 699 696 694 692 689 686 683 681 678 676 673 668 663 659 656 653 649 646 643 641 638 635 631 627 622 619 618 617 618 617 617 617 617 618 619 619 620 622 623 624 626 628 630 633 637 639 640 642 645 647 649 651 654 657
775 774 773 771 769 769 767 765 763 762 760 759 757 754 752 750 747 743 740 737 733 729 725 721 717 712 707 703 699 696 694 692 689 687 684 681 677 674 671 669 667 664 661 656 652 648 645 642 640 637 634 631 628 625 620 615 611 608 608 609 609 609 610 610 611 611 612 613 615 616 619 621 624 626 629 631 633 634 637 640 642 644 647 650 654
773 772 770 769 767 766 765 763 760 758 756 754 753 750 748 746 743 740 738 734 729 725 721 717 713 709 704 699 694 690 688 686 684 681 678 674 670 666 663 660 658 655 652 648 644 640 637 635 632 630 627 625 622 618 614 610 604 600 599 600 601 602 604 605 605 605 605 607 609 611 614 617 619 621 623 625 627 629 632 635 637 640 643 646 650
771 769 768 766 765 764 762 760 758 755 752 750 749 747 746 743 740 736 733 731 728 723 718 714 709 706 701 697 692 686 681 680 679 676 672 669 665 661 658 655 651 648 645 641 637 633 630 628 626 623 621 619 616 613 610 606 600 595 594 594 595 596 597 598 599 598 599 601 603 605 608 611 613 615 618 620 622 624 626 629 632 635 638 642 645
768 766 765 764 763 761 759 757 755 753 750 747 744 743 741 741 738 733 729 726 724 721 716 711 707 703 698 695 691 686 679 675 673 670 666 662 659 655 651 649 646 642 638 636 632 628 625 622 620 618 617 614 612 609 606 602 598 593 591 591 591 591 591 592 593 593 594 596 597 599 602 605 607 610 612 614 617 620 622 624 626 629 633 636 639
765 763 762 761 760 758 756 754 752 750 747 745 742 738 735 734 733 730 726 722 719 716 712 707 704 701 696 690 687 684 678 673 669 665 660 656 652 649 646 643 640 636 633 629 626 623 620 617 615 613 611 609 607 605 603 600 596 592 589 587 587 587 587 587 587 589 590 591 592 594 597 599 601 604 606 609 613 616 619 621 624 626 628 631 634
763 761 761 759 758 756 754 751 749 747 744 742 740 736 732 728 725 723 721 718 714 710 707 703 699 696 693 688 683 679 674 670 665 660 655 651 647 644 641 637 634 631 627 624 621 618 615 612 609 607 605 603 601 601 599 597 594 591 587 584 583 583 583 582 582 583 585 586 588 590 591 593 596 599 602 605 608 612 615 618 621 622 625 628 631
762 760 759 757 755 753 751 749 747 745 742 740 737 734 731 727 722 716 713 711 708 704 701 699 696 692 688 685 681 676 670 666 661 656 651 647 643 640 636 633 630 626 623 620 617 613 609 606 603 600 599 596 595 595 594 592 590 588 585 582 579 578 578 578 578 579 581 583 585 586 587 590 592 594 598 601 604 607 611 614 618 621 623 626 629
760 758 757 755 753 751 749 747 745 742 740 738 735 732 730 727 722 717 711 706 702 697 691 689 688 687 684 680 676 673 668 663 658 653 648 644 640 636 633 629 626 622 619 616 612 608 604 600 597 594 592 590 589 589 588 586 585 583 581 578 576 574 574 574 574 575 576 578 580 582 584 586 588 591 594 598 601 605 608 611 615 618 621 623 627
757 756 755 753 751 749 747 745 743 740 738 736 733 730 727 724 721 717 712 708 703 698 691 685 681 680 679 677 673 669 665 660 655 650 645 640 636 633 629 626 623 619 615 611 607 603 599 595 591 587 585 584 583 583 582 581 580 578 576 574 572 571 571 571 571 572 573 575 577 578 580 583 585 587 590 593 597 601 604 607 611 614 617 620 624
755 753 752 750 749 747 744 742 740 738 736 733 731 728 725 722 719 715 711 708 704 699 693 687 682 677 675 673 670 666 661 657 652 646 642 638 633 630 627 624 620 616 612 608 603 599 595 590 585 581 579 578 578 578 577 576 575 573 571 569 568 567 567 568 568 569 570 572 573 575 577 579 581 584 587 589 592 595 598 602 605 609 613 616 620
753 751 749 748 746 744 742 740 738 736 734 731 729 726 723 720 717 713 709 705 702 697 692 687 682 677 671 668 666 662 657 652 648 643 638 635 632 628 625 622 618 614 610 605 601 596 591 586 581 577 574 573 573 572 571 570 569 568 566 565 564 564 564 564 565 566 567 568 569 571 573 575 577 580 583 586 589 592 595 598 602 606 610 614 618
750 749 747 746 744 742 740 738 735 734 731 729 726 724 721 717 714 711 707 703 699 695 691 686 682 678 672 667 664 660 654 649 644 639 635 632 629 627 624 620 617 613 608 603 599 594 588 582 577 573 570 569 568 567 566 565 564 563 562 561 561 561 561 561 562 563 564 565 566 567 569 571 574 576 579 581 585 589 593 597 601 605 609 613 616
747 746 745 744 742 740 739 736 734 732 729 726 724 722 719 716 712 709 705 701 697 693 689 685 681 677 673 668 664 659 653 648 644 640 636 632 629 626 623 619 615 611 607 602 597 592 587 580 574 569 566 564 564 563 562 561 560 559 558 557 557 558 558 558 560 561 561 562 563 565 567 569 571 574 577 580 583 587 591 595 599 603 607 611 614
744 743 742 741 740 738 737 735 733 730 728 725 723 720 717 714 711 708 704 700 695 691 688 684 679 675 672 668 664 659 654 649 646 642 638 634 630 626 623 619 614 610 606 602 597 592 586 580 573 567 563 560 559 558 557 557 556 555 555 555 554 554 555 556 557 557 558 560 561 563 565 568 571 574 577 579 583 586 589 593 597 601 604 608 612
742 740 739 738 737 736 734 733 731 729 727 724 722 719 716 713 710 707 703 699 695 690 686 682 678 674 671 667 663 660 656 652 647 643 639 635 631 627 623 619 615 611 607 602 596 591 586 579 573 567 562 558 557 556 555 554 553 552 552 552 552 552 553 554 555 556 557 559 561 563 565 567 570 573 576 579 582 586 589 593 597 601 605 609 612
740 738 737 736 735 734 732 731 729 727 725 723 721 718 715 712 709 706 702 698 694 690 685 681 677 673 669 666 662 659 656 652 648 644 639 635 632 628 623 620 616 612 607 602 597 592 586 580 575 569 564 560 558 556 555 554 553 552 551 551 551 552 553 553 555 556 557 559 560 562 565 567 570 573 576 579 582 586 590 594 597 601 605 609 612
738 737 736 735 733 732 730 729 727 725 723 721 719 717 714 711 708 704 701 697 694 690 685 681 676 671 668 664 661 657 654 651 647 643 639 635 632 628 623 619 615 611 607 602 598 593 588 582 577 573 568 565 562 560 557 556 554 553 552 552 552 552 553 554 555 556 557 559 561 563 566 568 571 574 577 580 583 587 590 594 598 601 605 609 612
737 736 734 733 732 731 729 727 725 723 721 720 718 715 712 709 706 703 700 696 693 689 686 682 677 672 668 663 660 656 653 650 647 643 640 636 632 628 624 619 615 611 607 602 598 594 589 584 580 576 572 568 565 563 560 558 556 555 554 554 554 554 554 555 556 557 558 560 562 565 567 570 572 575 578 581 584 587 591 595 598 602 605 609 612
735 734 733 731 730 729 727 725 724 721 720 718 715 713 710 708 705 702 699 695 692 689 685 682 678 674 669 665 661 657 654 650 647 644 640 636 633 628 624 619 615 611 607 603 599 595 590 586 582 578 575 571 568 565 563 561 559 558 557 557 557 557 557 558 558 559 560 562 564 566 569 571 574 576 579 582 585 588 592 595 599 602 605 608 612
733 732 731 730 729 728 726 724 722 720 719 717 714 711 709 707 704 701 698 695 692 689 685 682 679 675 671 667 663 659 655 652 648 644 641 637 633 629 625 620 616 612 608 604 600 596 592 588 584 581 578 575 571 568 566 564 563 561 560 560 560 560 560 561 561 563 564 565 567 569 571 574 576 579 581 584 587 590 594 597 600 603 606 609 612
732 731 730 729 728 726 724 722 721 719 718 715 713 711 709 706 704 701 698 694 692 689 685 682 679 676 672 669 665 661 657 653 650 646 642 638 634 630 626 622 617 613 609 606 602 598 594 591 587 584 581 578 575 572 570 568 567 566 565 564 563 563 563 564 565 566 567 569 570 572 574 576 579 582 584 587 590 593 596 600 603 605 608 611 614
730 729 728 727 726 725 722 720 719 718 716 714 712 710 708 706 703 700 697 694 691 689 686 683 680 676 673 670 666 663 659 655 651 648 644 640 636 632 628 623 619 615 612 608 604 601 597 594 591 588 585 582 579 577 574 572 571 570 569 569 568 568 568 568 568 569 571 572 574 576 577 579 582 585 587 590 592 596 599 602 605 608 610 613 616
729 728 727 726 725 723 721 720 718 717 715 713 712 710 708 706 703 700 697 694 691 689 687 684 681 677 674 671 667 664 660 657 653 649 645 642 638 634 630 626 622 618 614 611 608 604 601 599 596 593 590 587 584 582 580 577 576 575 574 574 573 573 573 573 573 574 575 576 578 579 581 583 585 588 591 593 596 599 602 605 607 610 612 615 618
727 726 726 725 723 721 720 719 717 715 714 713 711 709 707 705 702 699 697 694 691 689 687 684 681 678 675 672 669 665 662 658 655 651 648 644 641 637 633 629 625 621 618 615 612 609 606 603 600 598 595 593 590 588 586 584 582 581 580 579 579 578 578 578 578 579 580 581 582 584 585 587 589 592 594 597 600 602 605 607 610 612 615 617 620
725 725 724 723 721 720 718 717 715 714 713 712 711 709 706 704 701 699 696 694 692 690 687 684 682 679 676 673 670 667 663 660 657 654 650 647 643 640 636 632 629 626 622 619 616 613 611 608 605 603 601 599 597 594 592 590 589 588 586 585 584 584 583 583 584 585 585 586 587 589 590 591 593 595 598 601 603 606 608 611 613 615 617 620 622